Vorticity
nan nan nan nan nan nan nan nan nan nan nan nan nan nan nan nan nan nan nan nan nan nan nan nan nan nan nan nan nan nan nan nan nan
nan 5 6 7 6 7 7 7 5 5 5 6 3 0 5 14 6 7 5 5 7 7 5 7 7 8 6 4 5 5 6 7 nan
nan 6 7 6 6 6 6 6 5 6 6 5 3 0 8 14 4 5 7 9 5 6 7 8 7 7 6 7 7 8 8 7 nan
nan 6 6 6 7 6 6 6 6 6 6 4 3 4 8 11 8 4 5 9 7 6 10 11 5 5 7 10 9 8 7 5 nan
nan 6 8 8 8 7 7 7 7 6 4 4 4 2 10 5 7 8 9 8 7 7 7 6 9 8 8 8 9 8 5 5 nan
nan 7 8 10 8 7 7 7 4 1 4 5 5 8 9 6 7 8 10 8 6 6 7 5 7 8 8 5 4 6 7 6 nan
nan 6 8 7 4 5 6 5 2 1 3 5 7 13 6 6 7 8 10 8 6 7 7 8 8 7 4 5 6 6 5 6 nan
nan 5 7 6 2 3 5 3 4 6 6 7 12 8 5 7 6 9 12 8 6 6 8 9 5 4 5 6 6 7 6 7 nan
nan 7 7 6 6 7 3 5 9 8 7 9 7 6 8 11 6 8 12 9 7 9 7 3 5 5 6 6 6 6 7 7 nan
nan 8 7 7 8 7 7 8 7 7 7 8 7 6 7 9 9 4 11 12 9 6 4 5 5 5 6 6 6 7 6 5 nan
nan 7 8 8 8 8 8 8 6 8 8 7 7 3 5 7 10 8 7 12 9 6 5 6 6 7 5 7 7 6 5 5 nan
nan 6 7 9 10 8 7 7 7 7 8 7 7 5 3 6 7 8 8 9 8 9 6 7 6 7 8 7 6 4 6 6 nan
nan 7 8 8 8 8 8 7 8 8 7 7 5 8 7 5 6 8 8 8 10 9 9 8 5 4 6 5 4 6 6 5 nan
nan 6 9 7 6 8 8 8 8 7 7 7 8 7 7 5 6 6 7 8 11 7 5 6 7 7 5 4 5 6 5 4 nan
nan 7 9 6 7 7 8 8 8 8 8 6 7 7 9 9 6 6 5 6 9 10 6 2 4 8 9 7 8 5 4 5 nan
nan 8 8 7 8 9 7 6 7 7 6 5 6 7 8 9 8 6 6 6 7 9 9 7 6 2 8 11 9 5 4 5 nan
nan 8 8 7 8 9 7 6 6 8 4 5 6 6 5 8 8 9 8 5 5 7 10 11 8 5 1 4 10 12 7 5 nan
nan 7 8 8 7 9 9 8 6 7 8 3 4 8 11 7 8 9 7 7 6 7 7 9 9 8 7 7 5 11 12 7 nan
nan 8 8 7 8 10 8 7 7 8 7 3 5 8 11 7 9 9 9 8 8 6 6 7 7 6 5 8 8 8 10 9 nan
nan nan nan nan nan nan nan nan nan nan nan nan nan nan nan nan nan nan nan nan nan nan nan nan nan nan nan nan nan nan nan nan nan
CAPE
14 6 6 19 28 27 22 42 33 13 2 0 0 0 0 6 0 5 19 13 23 20 17 10 14 17 28 178 161 135 111 98 62
8 4 0 20 23 18 45 71 40 11 3 0 0 0 0 6 11 14 24 25 16 14 20 16 17 19 29 32 31 31 27 18 24
5 3 4 15 16 18 32 34 19 3 0 0 0 0 1 2 9 20 26 44 17 29 33 24 24 26 23 18 15 12 11 30 57
6 3 10 12 29 23 19 8 2 0 0 0 0 0 0 2 6 8 34 61 18 18 41 46 37 32 14 18 25 51 73 58 43
20 13 20 30 48 30 15 6 2 0 0 0 0 0 0 19 30 10 32 53 25 41 25 68 54 25 65 76 77 78 53 43 25
0 3 14 37 42 30 13 7 4 0 0 0 0 0 24 47 36 28 66 25 25 31 20 41 22 67 78 55 46 37 40 26 11
1 0 15 35 39 34 17 4 0 0 0 0 0 15 3 6 19 14 67 72 5 15 26 23 69 66 55 34 20 10 9 14 19
6 0 23 21 17 6 10 0 0 0 0 0 7 15 6 12 28 19 70 54 12 26 55 64 53 36 15 7 11 10 12 19 18
9 0 14 15 16 7 0 0 3 1 0 0 4 17 14 24 31 7 52 77 38 68 65 36 15 7 11 6 10 18 12 14 19
2 0 9 4 14 4 0 3 5 1 0 0 6 13 4 21 35 27 20 78 100 76 53 17 9 9 14 11 14 15 28 40 41
0 1 8 5 17 1 2 6 3 0 1 2 8 9 2 1 0 42 11 45 74 79 43 8 11 10 13 12 19 40 27 17 23
0 0 1 0 3 0 3 7 4 1 4 4 3 10 4 0 0 0 1 9 20 67 24 13 14 11 25 56 39 23 18 42 35
0 0 0 0 1 0 2 6 6 1 3 3 2 3 3 0 0 0 0 0 0 24 40 30 24 26 33 46 32 27 44 26 18
0 0 0 0 0 0 0 0 0 0 0 0 0 0 0 0 0 0 0 0 0 1 13 10 33 30 24 32 22 41 27 15 8
0 0 0 0 0 0 0 0 0 0 0 0 0 0 0 0 0 0 0 0 0 0 0 0 10 34 36 8 55 39 27 10 2
0 0 0 0 0 0 0 0 0 0 0 0 0 0 0 0 0 0 0 0 0 0 1 0 0 5 38 43 40 33 20 7 3
0 0 0 0 0 0 0 0 0 0 0 0 0 0 0 0 0 0 0 0 0 0 0 3 14 13 0 0 0 11 6 11 7
0 0 0 0 0 0 0 0 0 0 0 0 0 0 0 0 0 0 1 0 0 0 0 2 9 2 0 0 0 0 1 9 8
0 0 0 0 0 0 0 0 0 0 0 0 0 0 0 0 0 0 0 1 2 0 0 0 0 0 0 0 0 0 0 0 5
0 0 0 0 0 0 0 0 0 0 0 0 0 0 0 0 0 0 0 0 0 0 0 0 0 0 0 0 0 0 0 0 1